Tracking 25372 objects as of 23-Jan-2022
HD Live streaming from Space Station
objects crossing your sky now

STARLINK-2623

Track STARLINK-2623 now!
10-day predictions
STARLINK-2623 is classified as:


NORAD ID: 48368
Int'l Code: 2021-038R
Perigee: 553.2 km
Apogee: 555.5 km
Inclination: 53.1 °
Period: 95.6 minutes
Semi major axis: 6925 km
RCS: Unknown
Launch date: May 4, 2021
Source: United States (US)
Launch site: AIR FORCE EASTERN TEST RANGE (AFETR)
aabbcc
Your satellite tracking list
Your tracking list is empty




NASA's NSSDC Master Catalog

Two Line Element Set (TLE):
1 48368U 21038R   22022.85286157  .00000549  00000-0  55746-4 0  9992
2 48368  53.0551 276.0617 0001636  60.3404 299.7748 15.06396866 40057
Source of the keplerian elements: AFSPC